Content
SEND FEEDBACK

Daily
Averages
Monthly
Summary
United States of America

CHICAGO, ILLINOIS


Home > North America > United States > Illinois
Elevation: 205 meters     Latitude: 41 59N     Longitude: 087 54W

WEATHER
 
SELECT A DAY
Number of Records: 195,132;   Date Range: 7/8/95 - 9/20/14
 
SHARE

PRINT THIS DATA

[ ← Previous Day ]
WEATHER ALMANAC - 3 FEBRUARY, 2013
[ Next Day → ]
[ °F ]   °C
Weather ElementAverageHighLow
Temperature-7.9 °C-5.6 °C (2:52 pm)-11.7 °C (3:52 am)
Dewpoint-11.8 °C-8.3 °C (11:52 pm)-15 °C (3:52 am)
Humidity74.1 %89 % (11:52 pm)60 % (1:52 pm)
Barometer1016.9 hPa1019 hPa (8:52 pm)1015.2 hPa (8:28 am)
Wind Speed14.3 km/h27.8 km/h (12:18 pm)
Wind Gust31.5 km/h (10:30 am)
Weather ElementAverage
Visibility8.9 km
Wind DirectionW (275.3 °)

Weather ElementTotal
Precipitation---
Heating Degree Days27 (Base 18.3)
Averaged from 34 records on 3 February, 2013
WEATHER CONDITIONS BREAKOUT
WIND DIRECTION BREAKOUT
WEATHER BY HOUR - 3 FEBRUARY, 2013
[ °F ]   °C
Local TimeTemperatureDewpointHumidityBarometerVisibilityWind DirectionWind SpeedGust SpeedPrecipitationEventsConditions
3:52 AM-11.7 °C-15 °C77 %1015.9 hPa8 kmWSW (250°)7.4 km/h0 mmSnowLight Snow
4:52 AM-11.7 °C-14.4 °C81 %1015.6 hPa6.4 kmWSW (250°)5.6 km/h0 mmHaze
6:52 AM-10.6 °C-13.9 °C77 %1016.6 hPa14.5 kmWest (260°)5.6 km/hOvercast
7:52 AM-10.6 °C-13.3 °C81 %1016.3 hPa12.9 kmWSW (250°)7.4 km/hOvercast
8:28 AM-10 °C-13 °C79 %1015.2 hPa2.9 kmWest (260°)7.4 km/h0 mmSnowLight Snow
8:40 AM-10 °C-12 °C86 %1015.2 hPa1.9 kmWest (260°)9.3 km/h0 mmSnowLight Snow
8:52 AM-9.4 °C-12.2 °C80 %1016.6 hPa1.9 kmWest (270°)13 km/h0 mmSnowLight Snow
9:21 AM-9 °C-12 °C79 %1015.2 hPa2.4 kmWNW (290°)13 km/h0 mmSnowLight Snow
9:34 AM-9 °C-12 °C79 %1015.2 hPa3.2 kmWest (280°)13 km/h0 mmSnowLight Snow
9:45 AM-9 °C-12 °C79 %1015.2 hPa2.4 kmWest (280°)14.8 km/h0 mmSnowLight Snow
9:52 AM-8.3 °C-11.1 °C81 %1016.6 hPa3.2 kmWest (280°)16.7 km/h0 mmSnowLight Snow
10:08 AM-8 °C-11 °C79 %1015.2 hPa4.8 kmWNW (300°)16.7 km/h0 mmSnowLight Snow
10:16 AM-8 °C-12 °C73 %1015.6 hPa4 kmWest (280°)18.5 km/h0 mmSnowLight Snow
10:30 AM-8 °C-12 °C73 %1015.6 hPa4 kmWNW (290°)24.1 km/h31.5 km/h0 mmSnowLight Snow
10:52 AM-7.8 °C-11.7 °C74 %1016.9 hPa6.4 kmWNW (300°)16.7 km/h0 mmSnowLight Snow
11:28 AM-7 °C-12 °C68 %1015.9 hPa14.5 kmWNW (300°)24.1 km/h31.5 km/h0 mmOvercast
11:52 AM-6.7 °C-12.2 °C65 %1017.3 hPa12.9 kmWNW (300°)25.9 km/h0 mmOvercast
12:18 PM-7 °C-12 °C68 %1015.6 hPa16.1 kmWest (280°)27.8 km/hScattered Clouds
12:52 PM-6.1 °C-12.2 °C63 %1017.3 hPa16.1 kmWNW (300°)22.2 km/hPartly Cloudy
1:52 PM-6.1 °C-12.8 °C60 %1017.3 hPa16.1 kmWNW (300°)25.9 km/hClear
2:52 PM-5.6 °C-12.2 °C60 %1017.9 hPa16.1 kmWest (270°)20.4 km/hPartly Cloudy
3:52 PM-6.1 °C-12.2 °C63 %1017.9 hPa14.5 kmWSW (240°)14.8 km/hPartly Cloudy
4:52 PM-6.7 °C-13.3 °C60 %1017.9 hPa16.1 kmWest (280°)20.4 km/h29.6 km/hClear
5:52 PM-7.2 °C-13.3 °C62 %1017.9 hPa16.1 kmWest (280°)9.3 km/hMostly Cloudy
6:52 PM-6.7 °C-12.2 °C65 %1018.3 hPa16.1 kmWest (270°)7.4 km/hOvercast
7:52 PM-6.7 °C-12.2 °C65 %1018.6 hPa16.1 kmWest (270°)16.7 km/hOvercast
8:52 PM-6.7 °C-12.2 °C65 %1019 hPa16.1 kmWest (280°)14.8 km/hOvercast
9:52 PM-6.7 °C-12.2 °C65 %1019 hPa16.1 kmWest (270°)13 km/hOvercast
10:48 PM-7 °C-9 °C86 %1017.6 hPa4 kmWest (280°)11.1 km/h0 mmSnowLight Snow
10:52 PM-6.7 °C-9.4 °C81 %1018.6 hPa2.9 kmWest (270°)9.3 km/h0 mmSnowLight Snow
11:24 PM-7 °C-9 °C86 %1017.3 hPa1.6 kmWest (270°)9.3 km/h0 mmSnowLight Snow
11:33 PM-7 °C-9 °C86 %1017.3 hPa2.4 kmWest (260°)7.4 km/h0 mmSnowLight Snow
11:42 PM-7 °C-9 °C86 %1017.3 hPa3.2 kmWest (280°)9.3 km/h0 mmSnowLight Snow
11:52 PM-6.7 °C-8.3 °C89 %1018.3 hPa2.4 kmWest (260°)5.6 km/h0 mmSnowLight Snow
Hourly data recorded from KPWK, located 0 kilometers away from Chicago, Illinois







STORIES FROM OUR PARTNERS